Terug naar catalogus

STARLINK-32858

ActiefCommunicatieVLEO
NORAD 62962·PAYLOAD·🇺🇸 United States

Gelanceerd Feb 11, 2025 vanaf Vandenberg Space Force Base

Loading…

Volgende Passages (komende 24 uur)

TLE

VersSource: CelesTrak SupGP

Epoch: Sep 15, 2026, 03:27 UTC

1 62962C 25029Q   26258.14423611 -.00023732  00000+0 -70146-3 0  2585
2 62962  53.1585  70.8916 0001154  87.7211   1.7884 15.34390098    13

Volg STARLINK-32858 in realtime met AllMySat

Download on the App Store